[[{"header":{"parameterUnit":"m.s-1","parameterCategory":1,"la1":30.2991,"la2":30.254,"lo1":-89.0895,"lo2":-89.0444,"dy":0.0017,"dx":0.0017,"nx":28,"ny":28,"refTime":"2025-08-15T03:00:00:Z","depth":0,"parameterNumber":2,"parameterNumberName":"U-component_of_WINDS"},"data":[0,0,0,0,0,0,0,0,0,0,0,0,0,0,0,0,0,0,0,0,0,0,0,0,0,0,0,0,0,0,0,0,0,0,0,0,0,0,0,0,0,0,0,0,0,0,0,0,0,0,0,0,0,0,0,0,0,0,1.7229,1.7229,0,1.7288,1.7288,1.7289,1.7267,1.7266,1.7264,1.7263,1.7324,1.7327,1.7329,0,0,0,0,0,0,0,0,0,0,0,0,0,1.7097,1.7099,1.7229,1.7229,1.723,1.7288,1.7288,1.7289,1.7267,1.7266,1.7264,1.7263,1.7323,1.7326,1.733,0,0,0,0,0,0,0,0,0,0,0,0,0,1.7155,1.71,1.7228,1.7226,1.7226,1.7287,1.7288,1.7289,1.7268,1.7266,1.7264,1.7262,1.7322,1.7326,1.733,1.7397,0,0,1.7343,1.7345,0,0,0,0,0,0,0,0,1.7151,1.716,1.7226,1.7226,1.7227,1.7268,1.7264,1.7325,1.7268,1.7252,1.7263,1.7261,1.7307,1.7312,1.7328,1.74,1.7402,1.7344,1.7346,1.7348,1.7349,0,0,0,0,0,0,0,1.7147,1.7157,1.7252,1.7227,1.7227,1.7222,1.7228,1.7276,1.729,1.7253,1.7252,1.7259,1.7307,1.7324,1.7329,1.7403,1.7343,1.7347,1.735,1.7352,1.7532,1.7534,0,0,0,0,0,0,1.7143,1.7154,1.725,1.7254,1.7183,1.7226,1.7233,1.7257,1.7289,1.7292,1.7261,1.7258,1.7317,1.7324,1.7331,1.7411,1.7348,1.7352,1.7354,1.753,1.7533,1.7535,0,0,0,0,0,0,1.714,1.7152,1.7248,1.7203,1.7215,1.723,1.7258,1.7259,1.7276,1.7295,1.7298,1.7275,1.7316,1.7325,1.738,1.7413,1.7354,1.7358,1.7527,1.7531,1.7534,1.7571,0,0,0,0,0,0,1.7137,1.7151,1.7177,1.7204,1.7218,1.7296,1.726,1.7262,1.7283,1.728,1.7309,1.7312,1.7315,1.7374,1.7385,1.7417,1.7361,1.7525,1.7529,1.7533,1.7567,1.7575,1.7582,0,0,0,0,0,1.7132,1.7185,1.7178,1.719,1.725,1.7298,1.7306,1.7308,1.7286,1.7312,1.7324,1.7311,1.7408,1.738,1.7392,1.7426,1.7523,1.7528,1.7533,1.7564,1.7574,1.7582,0,0,0,0,0,0,1.7161,1.7188,1.7181,1.7244,1.7269,1.7294,1.7327,1.7319,1.735,1.7346,1.7347,1.7354,1.7411,1.7424,1.7393,1.7492,1.7462,1.7469,1.7481,1.7491,1.7499,1.7494,1.7365,0,0,0,0,0,1.7175,1.7212,1.7234,1.7287,1.73,1.7312,1.7333,1.7332,1.7358,1.7368,1.7384,1.741,1.7446,1.7469,1.7503,1.7569,1.7575,1.7599,1.7606,1.7612,1.7619,1.7654,1.7665,1.7552,1.7552,1.7551,0,0,1.7203,1.7223,1.7246,1.7294,1.7313,1.7351,1.732,1.7362,1.739,1.7374,1.7428,1.7441,1.7469,1.753,1.7557,1.7543,1.7651,1.7619,1.7624,1.7627,1.7661,1.7671,1.7681,1.7555,1.7554,1.7554,0,0,1.7275,1.7294,1.734,1.736,1.7389,1.7396,1.7408,1.7434,1.7442,1.7496,1.7484,1.7518,1.758,1.76,1.7619,1.7698,1.7688,1.771,1.7749,1.7784,1.7793,1.7801,1.7829,1.7839,1.7716,1.7716,1.7716,0,1.7307,1.7364,1.7365,1.7408,1.7429,1.7416,1.7463,1.7482,1.7521,1.7536,1.7519,1.7596,1.7614,1.768,1.7699,1.7715,1.7727,1.7706,1.7791,1.7799,1.7807,1.7833,1.7844,1.7718,1.7718,1.7718,1.7718,0,1.7401,1.7441,1.7475,1.7513,1.7538,1.7583,1.7591,1.7616,1.7613,1.7622,1.7677,1.7698,1.7736,1.7752,1.775,1.7817,1.7807,1.7791,1.776,1.782,1.7845,1.7855,1.7722,1.7721,1.772,1.772,0,0,1.7492,1.753,1.7543,1.756,1.7591,1.7622,1.7666,1.7703,1.7724,1.7752,1.7788,1.7841,1.7826,1.7847,1.7848,1.7878,1.7939,1.7858,1.7859,1.7872,1.8014,1.8025,1.8037,1.7932,1.7934,1.7936,1.8011,0,1.7566,1.7643,1.7646,1.7716,1.7753,1.7741,1.778,1.7803,1.7813,1.7845,1.7856,1.7893,1.7871,1.7883,1.7913,1.7925,1.7967,1.792,1.7966,1.7968,1.7959,1.805,1.8063,1.8133,1.8021,1.8023,1.8024,0,1.7662,1.7693,1.7767,1.7793,1.7808,1.7842,1.7876,1.7908,1.7934,1.7939,1.7962,1.7958,1.8003,1.7971,1.8033,1.8,1.802,1.8029,1.8031,1.8035,1.7999,1.8056,1.8155,1.8166,1.804,1.8038,1.8037,0,1.7721,1.778,1.7832,1.7847,1.7878,1.7903,1.7917,1.7941,1.7963,1.7993,1.8008,1.8042,1.8061,1.8088,1.8094,1.807,1.8155,1.8124,1.816,1.816,1.8178,1.8177,1.8281,1.8192,1.8192,1.8191,1.8191,0,1.7803,1.7848,1.7859,1.789,1.7941,1.7944,1.7994,1.8006,1.8028,1.8062,1.8054,1.8086,1.8091,1.8125,1.8129,1.8179,1.8188,1.8193,1.8194,1.8194,1.8193,1.8206,1.8201,1.8194,1.8194,1.8193,1.8193,0,1.7876,1.7885,1.7941,1.7966,1.7973,1.801,1.8031,1.8062,1.8071,1.8114,1.8124,1.8138,1.8177,1.8185,1.8231,1.8233,1.8293,1.8289,1.8284,1.8284,1.8319,1.8316,1.8435,1.8451,1.8351,1.8352,1.8353,0,1.7927,1.7962,1.7991,1.8014,1.8029,1.8065,1.8087,1.8091,1.8115,1.8147,1.8174,1.8212,1.8242,1.8305,1.8319,1.8354,1.835,1.839,1.8356,1.8354,1.835,1.8348,1.8351,1.8396,1.8397,1.8398,1.8399,0,1.8018,1.802,1.8053,1.8087,1.8114,1.8141,1.8167,1.8186,1.8193,1.822,1.826,1.8283,1.833,1.8368,1.8403,1.8417,1.841,1.841,1.842,1.842,1.8415,1.8418,1.8302,1.8407,1.8406,1.8405,1.8405,1.8405,1.8081,1.8112,1.8137,1.8173,1.8193,1.8217,1.8247,1.826,1.8293,1.8331,1.8331,1.8374,1.8399,1.8446,1.8463,1.8496,1.8484,1.8499,1.8502,1.8506,1.8509,1.841,1.8503,1.8503,1.8502,1.8502,1.8502,0,1.817,1.8186,1.822,1.8256,1.8285,1.8275,1.8303,1.8328,1.8365,1.839,1.842,1.8465,1.8502,1.8519,1.8555,1.8578,1.8576,1.8588,1.8586,1.8589,1.8518,1.8506,1.8589,1.8589,1.8589,1.8589,1.8589,1.8589,1.822,1.8271,1.8276,1.8337,1.8352,1.8394,1.8411,1.8433,1.8452,1.8503,1.8533,1.8544,1.8566,1.8603,1.8636,1.864,1.8654,1.8667,1.867,1.8603,1.8594,1.8586,1.8574,1.867,1.867,1.8738,1.8738,1.8739]},{"header":{"parameterUnit":"m.s-1","parameterCategory":1,"la1":30.2991,"la2":30.254,"lo1":-89.0895,"lo2":-89.0444,"dy":0.0017,"dx":0.0017,"nx":28,"ny":28,"refTime":"2025-08-15T03:00:00:Z","depth":0,"parameterNumber":3,"parameterNumberName":"V-component_of_WINDS"},"data":[0,0,0,0,0,0,0,0,0,0,0,0,0,0,0,0,0,0,0,0,0,0,0,0,0,0,0,0,0,0,0,0,0,0,0,0,0,0,0,0,0,0,0,0,0,0,0,0,0,0,0,0,0,0,0,0,0,0,1.4717,1.4718,0,1.4762,1.4762,1.4763,1.4763,1.4762,1.4762,1.4761,1.4805,1.4807,1.4809,0,0,0,0,0,0,0,0,0,0,0,0,0,1.4633,1.4635,1.4717,1.4718,1.4719,1.4761,1.4762,1.4763,1.4763,1.4762,1.4761,1.4761,1.4805,1.4807,1.4809,0,0,0,0,0,0,0,0,0,0,0,0,0,1.4673,1.4635,1.4717,1.4724,1.4725,1.4761,1.4762,1.4763,1.4763,1.4762,1.4761,1.476,1.4804,1.4807,1.4809,1.4842,0,0,1.4817,1.4818,0,0,0,0,0,0,0,0,1.4671,1.4676,1.4722,1.4723,1.4725,1.4756,1.4749,1.4789,1.4763,1.4748,1.4761,1.476,1.4789,1.4793,1.4803,1.4844,1.4846,1.4817,1.4819,1.482,1.4821,0,0,0,0,0,0,0,1.4668,1.4674,1.4735,1.4723,1.4724,1.4725,1.4729,1.4756,1.4773,1.475,1.475,1.4755,1.479,1.4801,1.4804,1.4846,1.4817,1.4819,1.4821,1.4822,1.4917,1.4918,0,0,0,0,0,0,1.4664,1.4672,1.4733,1.4736,1.4695,1.4727,1.4732,1.4747,1.4773,1.4776,1.4756,1.4755,1.4797,1.4801,1.4806,1.4846,1.482,1.4822,1.4824,1.4916,1.4917,1.4918,0,0,0,0,0,0,1.4662,1.4669,1.4732,1.4704,1.4712,1.4729,1.4746,1.4748,1.4759,1.4777,1.478,1.4764,1.4796,1.4802,1.4833,1.4848,1.4823,1.4826,1.4915,1.4916,1.4918,1.4927,0,0,0,0,0,0,1.466,1.4669,1.4681,1.4704,1.4713,1.4758,1.4746,1.4749,1.4763,1.4763,1.4786,1.4789,1.4796,1.4829,1.4836,1.4851,1.4828,1.4914,1.4916,1.4917,1.4926,1.4929,1.4932,0,0,0,0,0,1.4657,1.4682,1.4682,1.4689,1.473,1.4759,1.4764,1.4773,1.4764,1.4777,1.4789,1.4788,1.4845,1.4833,1.484,1.4856,1.4913,1.4915,1.4917,1.4925,1.4928,1.4932,0,0,0,0,0,0,1.466,1.4685,1.4685,1.4719,1.4737,1.4759,1.4775,1.4776,1.4797,1.4795,1.4804,1.481,1.4841,1.4851,1.4837,1.4889,1.4878,1.4882,1.4881,1.4885,1.4888,1.4885,1.483,0,0,0,0,0,1.4664,1.4686,1.4707,1.4735,1.4744,1.4758,1.4771,1.4776,1.4795,1.4803,1.4817,1.4835,1.4858,1.4872,1.4893,1.4928,1.4933,1.4942,1.4945,1.4948,1.4951,1.497,1.4975,1.4926,1.4926,1.4926,0,0,1.4674,1.469,1.4704,1.4736,1.475,1.4773,1.4764,1.4789,1.4806,1.4806,1.4836,1.4848,1.4869,1.4902,1.4917,1.4912,1.4966,1.4951,1.4952,1.4954,1.4973,1.4978,1.4982,1.4927,1.4927,1.4927,0,0,1.4703,1.4718,1.4743,1.4758,1.478,1.4789,1.4795,1.4818,1.4826,1.4856,1.4857,1.4878,1.4916,1.4931,1.4943,1.498,1.4979,1.4986,1.5002,1.5021,1.5024,1.5028,1.5041,1.5046,1.4989,1.4989,1.4989,0,1.4712,1.4746,1.4755,1.478,1.4794,1.4796,1.4822,1.4836,1.4864,1.4874,1.4867,1.4916,1.493,1.4967,1.4976,1.4986,1.4993,1.4983,1.5023,1.5027,1.503,1.5043,1.5048,1.499,1.499,1.499,1.499,0,1.4756,1.478,1.4798,1.4825,1.4842,1.4866,1.4879,1.4895,1.4898,1.4909,1.494,1.4957,1.4983,1.4992,1.4995,1.5029,1.5026,1.5021,1.501,1.5036,1.5048,1.5052,1.4991,1.4991,1.4991,1.499,0,0,1.4788,1.4821,1.4827,1.484,1.4866,1.4884,1.4909,1.4935,1.4948,1.4967,1.4989,1.5021,1.5018,1.5032,1.5038,1.5054,1.5082,1.5048,1.5049,1.5054,1.5121,1.5125,1.513,1.5082,1.5083,1.5084,1.512,0,1.482,1.4865,1.4874,1.4913,1.4935,1.4938,1.496,1.4978,1.4989,1.5009,1.5021,1.5044,1.5037,1.5046,1.5063,1.5075,1.5096,1.5073,1.5102,1.5103,1.5097,1.5136,1.5139,1.5172,1.5124,1.5125,1.5126,0,1.4863,1.4884,1.4926,1.4949,1.4959,1.4978,1.5002,1.5022,1.5043,1.5049,1.5066,1.507,1.5096,1.5084,1.5121,1.5105,1.5118,1.5126,1.5127,1.513,1.5116,1.514,1.5183,1.5188,1.5133,1.5133,1.5132,0,1.4882,1.4921,1.4951,1.4962,1.499,1.5004,1.5016,1.5036,1.5051,1.5072,1.5082,1.5106,1.5119,1.5137,1.5147,1.5137,1.5184,1.5172,1.519,1.519,1.5199,1.5198,1.5244,1.5207,1.5207,1.5207,1.5207,0,1.4917,1.4942,1.496,1.4979,1.5007,1.5018,1.5046,1.5058,1.5076,1.5096,1.51,1.512,1.5132,1.5154,1.5162,1.5192,1.5197,1.5203,1.5205,1.5203,1.5202,1.5211,1.5209,1.5208,1.5208,1.5208,1.5208,0,1.4943,1.4956,1.4989,1.5013,1.502,1.504,1.506,1.5078,1.5089,1.5116,1.5122,1.5139,1.5165,1.5177,1.5208,1.5214,1.5248,1.5248,1.5241,1.5241,1.5259,1.5257,1.5312,1.532,1.5277,1.5278,1.5278,0,1.4964,1.4984,1.501,1.5024,1.5037,1.506,1.5076,1.5087,1.5103,1.5129,1.5144,1.517,1.5191,1.5232,1.5247,1.5271,1.5272,1.529,1.5275,1.5273,1.5272,1.5271,1.5273,1.5292,1.5292,1.5293,1.5293,0,1.5,1.5006,1.5028,1.5053,1.5072,1.5092,1.5111,1.5123,1.5138,1.5155,1.5182,1.5198,1.5231,1.5257,1.5282,1.5295,1.5296,1.5297,1.5303,1.5301,1.5296,1.5299,1.5248,1.5296,1.5296,1.5295,1.5295,1.5295,1.5025,1.5043,1.5064,1.5089,1.5105,1.5124,1.5142,1.5156,1.5178,1.5206,1.5211,1.5239,1.526,1.5295,1.5309,1.5331,1.5327,1.5334,1.5336,1.5338,1.5339,1.5292,1.5335,1.5335,1.5335,1.5335,1.5335,0,1.5061,1.5076,1.5099,1.5126,1.5146,1.5147,1.5169,1.5185,1.521,1.523,1.5251,1.5282,1.5307,1.5324,1.535,1.5364,1.5366,1.5371,1.537,1.5373,1.5341,1.5334,1.5369,1.5369,1.5369,1.5369,1.5369,1.5369,1.5083,1.5113,1.5122,1.5161,1.5175,1.5203,1.5215,1.5233,1.5249,1.5283,1.5304,1.5315,1.5334,1.5362,1.5385,1.5389,1.5399,1.5404,1.5408,1.5378,1.5375,1.5371,1.5365,1.5406,1.5406,1.5438,1.5438,1.5438]}]]